KF0EZB Weather Reports


Display with metric or nautical units.
time (UTC)temp
F
wind
direction
speed
MPH
gust
MPH
rain 1hr
in
rain 24hr
in
rain mn
in
humidity
%
barometer
mb
20260906082118 74 144 0.0 0.0 0.00 0.00 0.00 77 1014.2
20260906081614 74 145 0.0 0.0 0.00 0.00 0.00 77 1014.1
20260906081109 74 146 0.0 0.0 0.00 0.00 0.00 78 1014.1
20260906080606 74 152 0.0 0.0 0.00 0.00 0.00 78 1014.1
20260906075555 74 150 0.0 0.0 0.00 0.00 0.00 80 1013.9
20260906075050 74 147 0.0 0.0 0.00 0.00 0.00 80 1014.2
20260906074545 74 145 0.0 0.0 0.00 0.00 0.00 79 1014.0
20260906074043 75 140 0.0 0.0 0.00 0.00 0.00 79 1014.2
20260906073538 75 138 0.0 0.0 0.00 0.00 0.00 79 1014.2
20260906073035 75 145 0.0 0.0 0.00 0.00 0.00 79 1014.2
20260906072529 75 106 0.0 0.0 0.00 0.00 0.00 79 1014.1
20260906072026 75 154 0.0 0.0 0.00 0.00 0.00 78 1014.1
20260906071521 75 152 0.0 0.0 0.00 0.00 0.00 78 1014.1
20260906071016 75 148 0.0 0.0 0.00 0.00 0.00 78 1014.2
20260906070512 75 148 0.0 0.0 0.00 0.00 0.00 78 1014.2
20260906070008 75 152 0.0 0.0 0.00 0.00 0.00 79 1014.2
20260906065502 75 154 0.0 0.0 0.00 0.00 0.00 80 1014.1
20260906064957 75 135 0.0 0.0 0.00 0.00 0.00 80 1014.3
20260906064453 75 150 0.0 0.0 0.00 0.00 0.00 81 1014.0
20260906063948 75 148 0.0 0.0 0.00 0.00 0.00 81 1014.0
20260906063444 75 145 0.0 1.0 0.00 0.00 0.00 82 1014.1
20260906062944 75 144 0.0 0.0 0.00 0.00 0.00 82 1014.1
20260906062439 75 143 0.0 1.0 0.00 0.00 0.00 82 1013.9
20260906061934 75 128 0.0 0.0 0.00 0.00 0.00 82 1014.0
20260906061430 75 125 0.0 0.0 0.00 0.00 0.00 83 1013.7
20260906060930 75 119 0.0 2.0 0.00 0.00 0.00 83 1013.9
20260906060427 75 116 1.0 2.0 0.00 0.00 0.00 84 1013.8
20260906055923 75 107 1.0 2.0 0.00 0.00 0.00 84 1013.7
20260906055419 75 117 0.0 2.0 0.00 0.00 0.00 84 1013.5
20260906054914 75 107 0.0 1.0 0.00 0.00 0.00 85 1013.5
20260906054409 75 111 0.0 2.0 0.00 0.00 0.00 86 1013.8
20260906053905 74 112 1.0 1.0 0.00 0.00 0.00 87 1013.7
20260906053400 74 113 2.0 2.0 0.00 0.00 0.00 88 1013.8
20260906052856 74 117 0.0 1.0 0.00 0.00 0.00 89 1013.7
20260906052352 74 119 0.0 0.0 0.00 0.00 0.00 90 1013.7
20260906051849 74 121 0.0 2.0 0.00 0.00 0.00 91 1013.3
20260906051348 74 125 0.0 0.0 0.00 0.00 0.00 91 1013.5
20260906050845 74 128 0.0 1.0 0.00 0.00 0.00 91 1013.8
20260906050339 74 134 1.0 1.0 0.00 0.00 0.00 91 1013.7
20260906045838 74 134 0.0 0.0 0.00 0.04 0.04 91 1013.8
20260906045332 74 135 0.0 1.0 0.00 0.04 0.04 91 1013.9
20260906044829 74 135 1.0 1.0 0.00 0.04 0.04 91 1013.7
20260906044323 75 137 1.0 1.0 0.00 0.04 0.04 91 1014.0
20260906043819 75 141 0.0 0.0 0.00 0.04 0.04 90 1014.0
20260906043315 75 140 0.0 1.0 0.00 0.04 0.04 90 1014.1
20260906042815 75 150 0.0 0.0 0.00 0.04 0.04 90 1014.2
20260906042314 75 150 0.0 0.0 0.00 0.04 0.04 90 1013.9
20260906041809 75 106 0.0 0.0 0.00 0.04 0.04 90 1013.9
20260906041304 75 155 0.0 1.0 0.00 0.04 0.04 89 1014.1
20260906040800 75 157 0.0 0.0 0.00 0.04 0.04 89 1014.0
20260906040255 75 157 0.0 1.0 0.00 0.04 0.04 90 1013.8
20260906035750 75 156 0.0 1.0 0.00 0.04 0.04 90 1013.8
20260906035246 75 155 0.0 1.0 0.00 0.04 0.04 90 1013.8
20260906034746 75 152 0.0 0.0 0.00 0.04 0.04 91 1013.8
20260906034241 75 145 0.0 0.0 0.00 0.04 0.04 91 1013.9
20260906033737 75 144 0.0 1.0 0.00 0.04 0.04 92 1013.8
20260906033236 75 157 0.0 0.0 0.00 0.04 0.04 92 1013.7
20260906032733 75 152 0.0 0.0 0.00 0.04 0.04 92 1013.8
20260906032232 75 157 0.0 0.0 0.00 0.04 0.04 92 1013.8
20260906031728 75 154 0.0 0.0 0.00 0.04 0.04 92 1013.4
20260906031224 75 152 0.0 0.0 0.00 0.04 0.04 91 1013.5
20260906030723 76 153 0.0 0.0 0.00 0.04 0.04 91 1013.4
20260906030218 75 147 0.0 0.0 0.00 0.04 0.04 91 1013.5
20260906025717 76 146 0.0 0.0 0.00 0.04 0.04 91 1013.3
20260906025212 76 146 0.0 0.0 0.00 0.04 0.04 91 1013.3
20260906024711 76 142 0.0 0.0 0.00 0.04 0.04 91 1013.3
20260906024210 76 147 0.0 0.0 0.00 0.04 0.04 90 1013.4
20260906023707 76 147 0.0 0.0 0.00 0.04 0.04 90 1013.5
20260906023207 76 138 0.0 1.0 0.00 0.04 0.04 90 1013.5
20260906022702 76 143 0.0 0.0 0.00 0.04 0.04 89 1013.1
20260906022158 76 143 0.0 0.0 0.00 0.04 0.04 89 1013.1
20260906021653 76 137 0.0 0.0 0.00 0.04 0.04 89 1013.1
20260906021152 77 140 0.0 1.0 0.00 0.04 0.04 89 1012.9
20260906020646 77 147 0.0 0.0 0.00 0.04 0.04 88 1012.8
20260906020142 77 143 0.0 1.0 0.00 0.04 0.04 88 1012.9
20260906015636 77 154 0.0 1.0 0.00 0.04 0.04 88 1013.1
20260906015134 77 146 1.0 1.0 0.00 0.04 0.04 88 1013.0
20260906014629 77 144 0.0 0.0 0.00 0.04 0.04 88 1012.6
20260906014125 77 138 0.0 0.0 0.00 0.04 0.04 88 1012.5
20260906013620 77 126 0.0 0.0 0.00 0.04 0.04 87 1012.5
20260906013116 77 136 0.0 0.0 0.00 0.04 0.04 86 1012.5
20260906012610 78 132 0.0 0.0 0.00 0.04 0.04 86 1012.4
20260906012105 78 166 0.0 0.0 0.00 0.04 0.04 85 1012.3
20260906011601 78 173 0.0 1.0 0.00 0.04 0.04 85 1012.4
20260906011101 79 213 1.0 2.0 0.00 0.04 0.04 84 1012.6
20260906010556 79 210 0.0 1.0 0.00 0.04 0.04 84 1012.6
20260906010052 79 165 0.0 0.0 0.00 0.04 0.04 84 1012.4
20260906005051 79 166 0.0 0.0 0.00 0.04 0.04 84 1012.4
20260906004550 79 166 0.0 0.0 0.00 0.04 0.04 84 1012.4
20260906004045 80 167 0.0 0.0 0.00 0.04 0.04 84 1012.6
20260906003540 80 168 0.0 0.0 0.00 0.04 0.04 83 1012.2
20260906003037 80 172 0.0 0.0 0.00 0.04 0.04 82 1012.4
20260906002531 79 168 0.0 0.0 0.00 0.04 0.04 82 1012.7
20260906002026 79 168 1.0 1.0 0.00 0.04 0.04 82 1012.3
20260906001521 79 166 0.0 0.0 0.00 0.04 0.04 83 1012.4
20260906001015 78 166 0.0 0.0 0.00 0.04 0.04 81 1012.4
20260906000512 79 171 0.0 0.0 0.00 0.04 0.04 81 1012.3
20260906000006 79 187 0.0 1.0 0.00 0.04 0.04 79 1012.3
20260905235500 78 221 0.0 3.0 0.00 0.04 0.04 79 1012.4
20260905234955 76 273 3.0 5.0 0.00 0.04 0.04 85 1012.6
20260905234450 75 252 3.0 5.0 0.00 0.04 0.04 89 1012.6
20260905233944 75 286 3.0 6.0 0.00 0.04 0.04 90 1012.6
20260905233440 75 256 3.0 5.0 0.00 0.04 0.04 91 1012.5
20260905232938 75 206 0.0 3.0 0.00 0.04 0.04 90 1012.5
20260905232435 75 237 1.0 2.0 0.05 0.04 0.04 89 1012.3
20260905231931 76 248 2.0 2.0 0.05 0.04 0.04 88 1012.4
20260905231426 77 226 1.0 2.0 0.14 0.03 0.03 85 1012.7
20260905230923 79 235 1.0 2.0 0.19 0.03 0.03 79 1012.9
20260905230421 83 200 0.0 6.0 0.05 0.01 0.01 69 1013.2
20260905225919 83 1 0.0 0.0 0.00 0.00 0.00 64 1013.1
20260905225415 85 297 1.0 2.0 0.00 0.00 0.00 61 1013.1
20260905224909 85 190 1.0 1.0 0.00 0.00 0.00 58 1012.7
20260905224405 85 207 1.0 3.0 0.00 0.00 0.00 59 1012.6
20260905223900 86 256 2.0 5.0 0.00 0.00 0.00 58 1013.0
20260905223358 86 264 0.0 1.0 0.00 0.00 0.00 56 1012.9
20260905222858 86 125 0.0 3.0 0.00 0.00 0.00 57 1012.8
20260905222356 86 304 2.0 3.0 0.00 0.00 0.00 56 1012.7
20260905221853 85 152 1.0 2.0 0.00 0.00 0.00 58 1012.5
20260905221349 85 144 1.0 2.0 0.00 0.00 0.00 59 1012.7
20260905220845 85 116 1.0 3.0 0.00 0.00 0.00 58 1012.7
20260905220341 86 195 1.0 2.0 0.00 0.00 0.00 58 1012.6
20260905215840 86 86 0.0 6.0 0.00 0.00 0.00 56 1012.8
20260905215336 86 285 0.0 9.0 0.00 0.00 0.00 55 1012.6
20260905214832 87 128 6.0 9.0 0.00 0.00 0.00 56 1012.4
20260905214327 92 57 2.0 7.0 0.00 0.00 0.00 51 1012.6
20260905213822 97 98 1.0 6.0 0.00 0.00 0.00 37 1012.3
20260905213318 97 81 1.0 3.0 0.00 0.00 0.00 37 1012.4
20260905212813 97 143 1.0 3.0 0.00 0.00 0.00 37 1011.9
20260905212312 97 163 2.0 6.0 0.00 0.00 0.00 37 1011.7
20260905211808 97 198 3.0 5.0 0.00 0.00 0.00 37 1011.7
20260905211302 97 143 1.0 5.0 0.00 0.00 0.00 36 1011.9
20260905210759 98 134 0.0 6.0 0.00 0.00 0.00 36 1011.5
20260905210258 98 166 1.0 6.0 0.00 0.00 0.00 36 1011.7
20260905205757 98 130 2.0 5.0 0.00 0.00 0.00 36 1011.9
20260905205252 98 129 1.0 10.0 0.00 0.00 0.00 36 1012.1
20260905204751 99 107 2.0 10.0 0.00 0.00 0.00 36 1012.0
20260905204248 99 208 2.0 3.0 0.00 0.00 0.00 35 1012.1
20260905203746 100 202 2.0 3.0 0.00 0.00 0.00 35 1012.2
20260905203242 100 136 7.0 11.0 0.00 0.00 0.00 35 1012.1
20260905202737 100 148 1.0 10.0 0.00 0.00 0.00 36 1012.0
20260905202233 101 212 5.0 9.0 0.00 0.00 0.00 34 1012.1
20260905201728 100 149 2.0 7.0 0.00 0.00 0.00 35 1012.2
20260905201223 100 214 5.0 7.0 0.00 0.00 0.00 36 1012.2
20260905200718 100 359 2.0 8.0 0.00 0.00 0.00 36 1012.4
20260905200214 100 169 3.0 6.0 0.00 0.00 0.00 36 1012.5
20260905195712 99 171 0.0 6.0 0.00 0.00 0.00 36 1012.3
20260905195206 100 104 3.0 9.0 0.00 0.00 0.00 36 1012.4
20260905194702 102 138 2.0 5.0 0.00 0.00 0.00 35 1012.3
20260905194202 102 163 0.0 6.0 0.00 0.00 0.00 35 1012.4
20260905193656 100 222 0.0 5.0 0.00 0.00 0.00 36 1012.6
20260905193151 99 166 0.0 0.0 0.00 0.00 0.00 36 1012.9
20260905192647 99 110 0.0 3.0 0.00 0.00 0.00 36 1012.9
20260905192143 101 140 0.0 8.0 0.00 0.00 0.00 36 1012.9
20260905191643 102 135 3.0 9.0 0.00 0.00 0.00 35 1013.2
20260905191140 101 162 2.0 3.0 0.00 0.00 0.00 35 1013.1
20260905190639 101 162 2.0 3.0 0.00 0.00 0.00 35 1013.1
20260905190138 102 117 3.0 9.0 0.00 0.00 0.00 34 1013.2
20260905185637 102 83 1.0 8.0 0.00 0.00 0.00 35 1013.1
20260905185132 104 255 3.0 8.0 0.00 0.00 0.00 33 1013.1
20260905184626 102 167 4.0 7.0 0.00 0.00 0.00 35 1013.2
20260905184125 102 199 5.0 9.0 0.00 0.00 0.00 34 1013.3
20260905183625 104 199 3.0 5.0 0.00 0.00 0.00 33 1013.5
20260905183120 102 195 3.0 9.0 0.00 0.00 0.00 35 1013.3
20260905182620 102 233 3.0 5.0 0.00 0.00 0.00 35 1013.2
20260905182119 102 87 3.0 7.0 0.00 0.00 0.00 36 1013.7
20260905181614 101 164 4.0 8.0 0.00 0.00 0.00 37 1013.4
20260905181113 102 233 3.0 5.0 0.00 0.00 0.00 36 1013.7
20260905180609 102 213 3.0 6.0 0.00 0.00 0.00 36 1013.7
20260905180104 101 163 3.0 7.0 0.00 0.00 0.00 37 1013.5
20260905175603 101 199 4.0 8.0 0.00 0.00 0.00 38 1013.9
20260905175058 102 213 6.0 8.0 0.00 0.00 0.00 37 1013.8
20260905174554 100 259 3.0 3.0 0.00 0.00 0.00 38 1013.8
20260905174049 99 48 2.0 7.0 0.00 0.00 0.00 40 1014.2
20260905173546 100 188 5.0 7.0 0.00 0.00 0.00 40 1014.1
20260905173041 99 162 1.0 8.0 0.00 0.00 0.00 41 1013.9
20260905172539 99 179 1.0 7.0 0.00 0.00 0.00 42 1014.2
20260905172035 98 163 3.0 7.0 0.00 0.00 0.00 42 1013.9
20260905171531 98 142 3.0 7.0 0.00 0.00 0.00 43 1014.5
20260905171027 98 156 3.0 5.0 0.00 0.00 0.00 42 1014.2
20260905170524 98 163 1.0 9.0 0.00 0.00 0.00 43 1014.2
20260905170024 98 307 3.0 3.0 0.00 0.00 0.00 43 1014.2
20260905165518 97 182 1.0 9.0 0.00 0.00 0.00 44 1014.1
20260905165014 96 187 6.0 8.0 0.00 0.00 0.00 43 1014.2
20260905164508 96 143 2.0 6.0 0.00 0.00 0.00 45 1014.1
20260905164003 96 124 0.0 5.0 0.00 0.00 0.00 46 1014.2
20260905163459 97 132 2.0 2.0 0.00 0.00 0.00 44 1014.3
20260905162955 96 80 2.0 5.0 0.00 0.00 0.00 45 1014.2
20260905162450 95 156 2.0 2.0 0.00 0.00 0.00 46 1014.3
20260905161945 94 169 2.0 6.0 0.00 0.00 0.00 47 1014.3
20260905161444 94 181 4.0 8.0 0.00 0.00 0.00 47 1014.5
20260905160942 94 168 2.0 5.0 0.00 0.00 0.00 48 1014.4
20260905160436 92 241 4.0 6.0 0.00 0.00 0.00 49 1014.4
20260905155936 92 241 4.0 6.0 0.00 0.00 0.00 49 1014.4
20260905155431 92 163 1.0 5.0 0.00 0.00 0.00 49 1014.4
20260905154929 92 163 1.0 5.0 0.00 0.00 0.00 49 1014.4
20260905154424 92 163 1.0 5.0 0.00 0.00 0.00 49 1014.4
20260905152026 89 203 4.0 7.0 0.00 0.00 0.00 54 1014.1
20260905151522 89 203 4.0 7.0 0.00 0.00 0.00 54 1014.1
20260905151016 89 133 2.0 6.0 0.00 0.00 0.00 54 1014.3
20260905144845 87 198 2.0 5.0 0.00 0.00 0.00 57 1013.8
20260905144341 87 198 2.0 5.0 0.00 0.00 0.00 57 1013.8
20260905143839 86 187 2.0 2.0 0.00 0.00 0.00 57 1014.0
20260905143334 86 210 3.0 7.0 0.00 0.00 0.00 58 1013.8
20260905142833 86 210 3.0 7.0 0.00 0.00 0.00 58 1013.8
20260905142327 86 240 2.0 6.0 0.00 0.00 0.00 58 1013.9
20260905141823 85 255 3.0 6.0 0.00 0.00 0.00 58 1013.9
20260905140931 82 117 1.0 5.0 0.00 0.00 0.00 64 1013.9
20260905140425 82 117 1.0 5.0 0.00 0.00 0.00 64 1013.9
20260905135924 82 117 1.0 5.0 0.00 0.00 0.00 64 1013.9
20260905134607 82 186 2.0 2.0 0.00 0.00 0.00 62 1013.5
20260905134105 82 186 2.0 2.0 0.00 0.00 0.00 62 1013.5
20260905133601 82 186 2.0 2.0 0.00 0.00 0.00 62 1013.5
20260905133101 82 192 2.0 2.0 0.00 0.00 0.00 64 1013.7
20260905132600 81 134 4.0 6.0 0.00 0.00 0.00 65 1013.4
20260905132055 81 177 2.0 5.0 0.00 0.00 0.00 65 1013.5
20260905131551 80 165 1.0 2.0 0.00 0.00 0.00 66 1013.2
20260905131046 80 204 3.0 5.0 0.00 0.00 0.00 67 1013.4
20260905130545 79 127 3.0 5.0 0.00 0.00 0.00 68 1013.2
20260905130040 78 169 1.0 2.0 0.00 0.00 0.00 69 1013.0
20260905125539 78 141 1.0 2.0 0.00 0.00 0.00 70 1013.1
20260905125035 78 158 0.0 2.0 0.00 0.00 0.00 71 1013.2
20260905124532 77 166 1.0 2.0 0.00 0.00 0.00 72 1013.0
20260905124027 77 179 1.0 1.0 0.00 0.00 0.00 72 1012.9
20260905123523 76 121 3.0 5.0 0.00 0.00 0.00 73 1012.9
20260905123020 76 199 1.0 2.0 0.00 0.00 0.00 73 1013.0
20260905122513 76 188 0.0 1.0 0.00 0.00 0.00 73 1012.6
20260905122009 76 169 0.0 0.0 0.00 0.00 0.00 74 1012.6
20260905121509 76 189 0.0 0.0 0.00 0.00 0.00 74 1012.8
20260905121003 76 189 0.0 0.0 0.00 0.00 0.00 73 1012.7
20260905120457 76 163 0.0 0.0 0.00 0.00 0.00 73 1012.6
20260905115952 76 168 0.0 0.0 0.00 0.00 0.00 73 1012.7
20260905115451 76 174 0.0 1.0 0.00 0.00 0.00 72 1012.5
20260905114946 77 202 0.0 2.0 0.00 0.00 0.00 72 1012.5
20260905114446 77 168 0.0 1.0 0.00 0.00 0.00 71 1012.8
20260905113944 77 189 0.0 0.0 0.00 0.00 0.00 71 1012.7
20260905113440 77 169 0.0 0.0 0.00 0.00 0.00 70 1012.6
20260905112935 78 175 0.0 3.0 0.00 0.00 0.00 70 1012.4
20260905112431 78 159 0.0 0.0 0.00 0.00 0.00 69 1012.8
20260905111926 78 171 1.0 1.0 0.00 0.00 0.00 69 1012.7
20260905111420 77 170 0.0 0.0 0.00 0.00 0.00 70 1012.8
20260905110914 77 164 0.0 0.0 0.00 0.00 0.00 72 1012.8
20260905110408 77 162 0.0 1.0 0.00 0.00 0.00 72 1012.8
20260905105903 77 162 0.0 0.0 0.00 0.00 0.00 72 1012.9
20260905105402 77 163 0.0 0.0 0.00 0.00 0.00 72 1013.0
20260905104856 77 163 0.0 0.0 0.00 0.00 0.00 72 1013.0
20260905104353 77 163 0.0 0.0 0.00 0.00 0.00 72 1012.8
20260905103853 77 163 0.0 0.0 0.00 0.00 0.00 72 1012.8
20260905103348 77 164 0.0 0.0 0.00 0.00 0.00 71 1013.0
20260905102844 77 165 0.0 0.0 0.00 0.00 0.00 71 1012.9
20260905102341 78 167 0.0 0.0 0.00 0.00 0.00 70 1012.9
20260905101840 78 174 0.0 1.0 0.00 0.00 0.00 70 1012.9
20260905101339 78 194 1.0 2.0 0.00 0.00 0.00 70 1012.9
20260905100833 78 187 2.0 2.0 0.00 0.00 0.00 70 1012.8
20260905100330 78 164 0.0 1.0 0.00 0.00 0.00 70 1012.7
20260905095829 79 168 0.0 1.0 0.00 0.00 0.00 68 1013.0
20260905095323 79 169 0.0 1.0 0.00 0.00 0.00 68 1012.9
20260905094818 79 171 0.0 0.0 0.00 0.00 0.00 67 1013.1
20260905094313 80 192 1.0 2.0 0.00 0.00 0.00 67 1013.0
20260905093812 80 199 2.0 3.0 0.00 0.00 0.00 67 1012.9
20260905093308 80 180 1.0 3.0 0.00 0.00 0.00 66 1012.9
20260905092804 80 177 1.0 3.0 0.00 0.00 0.00 66 1012.9
20260905092258 80 178 1.0 2.0 0.00 0.00 0.00 66 1013.1
20260905091758 80 187 1.0 1.0 0.00 0.00 0.00 66 1012.9
20260905091253 80 211 1.0 2.0 0.00 0.00 0.00 66 1013.0
20260905090752 81 169 0.0 1.0 0.00 0.00 0.00 65 1012.9
20260905090248 81 175 1.0 2.0 0.00 0.00 0.00 65 1013.1
20260905085742 81 218 2.0 2.0 0.00 0.00 0.00 64 1012.9
20260905085242 81 172 0.0 3.0 0.00 0.00 0.00 64 1013.1
20260905084742 81 165 1.0 2.0 0.00 0.00 0.00 64 1012.9
20260905084242 82 185 0.0 2.0 0.00 0.00 0.00 64 1012.9
20260905083737 82 170 1.0 2.0 0.00 0.00 0.00 63 1013.0
20260905083232 82 169 1.0 5.0 0.00 0.00 0.00 63 1012.7
20260905082728 82 143 1.0 3.0 0.00 0.00 0.00 63 1012.9